KC3BAN-13 Weather Reports


time (UTC)temp
C
wind
direction
speed
KPH
gust
KPH
rain 1hr
cm
rain 24hr
cm
rain mn
cm
humidity
%
barometer
mb
20260510192751 27 25 0.0 4.8 0.00 0.00 0.00 49 1005.2
20260510192245 27 24 0.0 4.8 0.00 0.00 0.00 50 1005.3
20260510191739 27 284 0.0 3.2 0.00 0.00 0.00 50 1005.3
20260510191234 27 355 1.6 4.8 0.00 0.00 0.00 50 1005.2
20260510190727 27 68 1.6 4.8 0.00 0.00 0.00 54 1005.3
20260510190445 27 107 0.0 4.8 0.00 0.00 0.00 54 1005.3
20260510185715 26 86 0.0 4.8 0.00 0.00 0.00 56 1005.3
20260510185208 26 76 0.0 3.2 0.00 0.00 0.00 54 1005.4
20260510184709 26 76 0.0 3.2 0.00 0.00 0.00 54 1005.4
20260510184206 26 100 1.6 6.4 0.00 0.00 0.00 56 1005.4
20260510183704 26 86 1.6 6.4 0.00 0.00 0.00 52 1005.4
20260510183207 27 86 1.6 6.4 0.00 0.00 0.00 54 1005.3
20260510182702 26 45 0.0 4.8 0.00 0.00 0.00 53 1005.4
20260510182159 26 53 0.0 3.2 0.00 0.00 0.00 57 1005.4
20260510181657 26 53 0.0 3.2 0.00 0.00 0.00 56 1005.4
20260510181157 26 86 0.0 3.2 0.00 0.00 0.00 53 1005.5
20260510180657 26 49 1.6 9.7 0.00 0.00 0.00 54 1005.4
20260510180155 27 49 1.6 9.7 0.00 0.00 0.00 55 1005.5
20260510175654 27 357 1.6 6.4 0.00 0.00 0.00 54 1005.6
20260510175414 27 66 0.0 4.8 0.00 0.00 0.00 53 1005.6
20260510174654 27 241 0.0 3.2 0.00 0.00 0.00 52 1005.6
20260510174151 27 91 1.6 8.0 0.00 0.00 0.00 54 1005.6
20260510173649 27 77 1.6 8.0 0.00 0.00 0.00 55 1005.6
20260510173146 27 224 0.0 4.8 0.00 0.00 0.00 57 1005.5
20260510172647 27 358 0.0 4.8 0.00 0.00 0.00 55 1005.5
20260510172406 27 229 1.6 8.0 0.00 0.00 0.00 56 1005.6
20260510171644 27 246 1.6 8.0 0.00 0.00 0.00 58 1005.7
20260510171144 27 51 1.6 4.8 0.00 0.00 0.00 56 1005.8
20260510170644 27 237 1.6 6.4 0.00 0.00 0.00 50 1005.8
20260510170137 26 89 1.6 6.4 0.00 0.00 0.00 44 1005.7
20260510165631 26 63 1.6 6.4 0.00 0.00 0.00 44 1005.8
20260510165125 26 240 1.6 9.7 0.00 0.00 0.00 47 1006.0
20260510164618 26 208 1.6 9.7 0.00 0.00 0.00 47 1006.0
20260510164114 26 76 1.6 8.0 0.00 0.00 0.00 46 1006.0
20260510163606 26 266 1.6 6.4 0.00 0.00 0.00 49 1006.0
20260510163101 26 212 1.6 6.4 0.00 0.00 0.00 49 1006.0
20260510162555 26 214 1.6 4.8 0.00 0.00 0.00 51 1006.1
20260510162308 26 178 3.2 6.4 0.00 0.00 0.00 50 1006.1
20260510161809 25 181 3.2 6.4 0.00 0.00 0.00 51 1006.2
20260510161037 25 238 3.2 11.3 0.00 0.00 0.00 49 1006.1
20260510160531 25 304 1.6 11.3 0.00 0.00 0.00 51 1006.2
20260510160025 25 226 1.6 8.0 0.00 0.00 0.00 49 1006.1
20260510155518 25 212 3.2 9.7 0.00 0.00 0.00 52 1006.1
20260510155014 25 220 1.6 8.0 0.00 0.00 0.00 52 1006.3
20260510154506 25 7 1.6 8.0 0.00 0.00 0.00 53 1006.3
20260510154001 25 198 0.0 3.2 0.00 0.00 0.00 51 1006.3
20260510153454 25 37 0.0 4.8 0.00 0.00 0.00 54 1006.3
20260510152949 25 236 1.6 6.4 0.00 0.00 0.00 53 1006.2
20260510152445 25 281 3.2 8.0 0.00 0.00 0.00 54 1006.3
20260510151937 24 139 3.2 9.7 0.00 0.00 0.00 53 1006.3
20260510151431 24 218 1.6 9.7 0.00 0.00 0.00 55 1006.3
20260510150924 24 80 1.6 6.4 0.00 0.00 0.00 55 1006.1
20260510150419 24 284 1.6 6.4 0.00 0.00 0.00 56 1006.1
20260510145914 24 210 1.6 6.4 0.00 0.00 0.00 56 1006.0
20260510145407 23 94 1.6 8.0 0.00 0.00 0.00 56 1006.0
20260510144900 23 187 1.6 8.0 0.00 0.00 0.00 57 1005.9
20260510144356 23 210 1.6 6.4 0.00 0.00 0.00 55 1005.8
20260510143849 23 214 1.6 4.8 0.00 0.00 0.00 57 1005.7
20260510143344 23 214 1.6 6.4 0.00 0.00 0.00 56 1005.8
20260510142840 23 92 1.6 9.7 0.00 0.00 0.00 57 1005.7
20260510142552 23 207 1.6 9.7 0.00 0.00 0.00 58 1005.7
20260510141330 23 209 0.0 1.6 0.00 0.00 0.00 61 1005.6
20260510140831 22 106 0.0 1.6 0.00 0.00 0.00 63 1005.7
20260510140330 22 105 0.0 1.6 0.00 0.00 0.00 65 1005.7
20260510135831 22 51 0.0 4.8 0.00 0.00 0.00 67 1005.8
20260510135330 22 77 0.0 4.8 0.00 0.00 0.00 68 1005.7
20260510134848 21 223 0.0 1.6 0.00 0.00 0.00 69 1005.8
20260510134329 21 223 0.0 1.6 0.00 0.00 0.00 70 1005.7
20260510134051 21 223 0.0 1.6 0.00 0.00 0.00 73 1005.7
20260510133550 20 223 0.0 1.6 0.00 0.00 0.00 78 1005.7
20260510132824 19 223 0.0 1.6 0.00 0.00 0.00 81 1005.8
20260510132325 18 223 0.0 4.8 0.00 0.00 0.00 84 1005.9
20260510131825 18 223 0.0 4.8 0.00 0.00 0.00 85 1005.8
20260510131324 18 124 0.0 1.6 0.00 0.00 0.00 88 1005.9
20260510130821 18 120 0.0 1.6 0.00 0.00 0.00 88 1006.0
20260510130320 17 120 0.0 1.6 0.00 0.00 0.00 88 1006.0
20260510125820 17 208 0.0 3.2 0.00 0.00 0.00 86 1006.1
20260510125551 17 208 0.0 3.2 0.00 0.00 0.00 86 1006.1
20260510124821 17 276 0.0 1.6 0.00 0.00 0.00 86 1006.1
20260510124537 16 278 0.0 0.0 0.00 0.00 0.00 87 1006.1
20260510123820 16 276 0.0 3.2 0.00 0.00 0.00 87 1006.1
20260510123320 15 276 0.0 3.2 0.00 0.00 0.00 87 1006.1
20260510122821 15 54 0.0 1.6 0.00 0.00 0.00 88 1006.0
20260510122537 15 54 0.0 3.2 0.00 0.00 0.00 88 1006.0
20260510121817 14 54 0.0 3.2 0.00 0.00 0.00 88 1006.0
20260510121316 14 72 0.0 4.8 0.00 0.00 0.00 88 1005.8
20260510120816 13 72 1.6 4.8 0.00 0.00 0.00 88 1005.8
20260510120317 13 85 0.0 3.2 0.00 0.00 0.00 88 1005.8
20260510115816 13 85 0.0 1.6 0.00 0.00 0.00 89 1005.8
20260510115038 12 113 0.0 1.6 0.00 0.00 0.00 89 1005.8
20260510114317 12 279 0.0 1.6 0.00 0.00 0.00 89 1005.7
20260510113816 11 278 0.0 1.6 0.00 0.00 0.00 89 1005.7
20260510113317 11 278 0.0 1.6 0.00 0.00 0.00 89 1005.5
20260510112817 11 278 0.0 0.0 0.00 0.00 0.00 89 1005.4
20260510112317 10 278 0.0 0.0 0.00 0.00 0.00 88 1005.2
20260510111816 10 278 0.0 0.0 0.00 0.00 0.00 88 1005.2
20260510111317 10 278 0.0 0.0 0.00 0.00 0.00 88 1005.0
20260510110817 10 278 0.0 0.0 0.00 0.00 0.00 88 1004.8
20260510110317 10 278 0.0 0.0 0.00 0.00 0.00 88 1004.7
20260510105817 10 278 0.0 0.0 0.00 0.00 0.00 88 1004.6
20260510105316 9 278 0.0 0.0 0.00 0.00 0.00 88 1004.6
20260510104816 9 278 0.0 0.0 0.00 0.00 0.00 88 1004.5
20260510104317 9 278 0.0 0.0 0.00 0.00 0.00 88 1004.5
20260510103816 9 278 0.0 0.0 0.00 0.00 0.00 88 1004.4
20260510103317 9 278 0.0 0.0 0.00 0.00 0.00 88 1004.4
20260510102816 9 278 0.0 0.0 0.00 0.00 0.00 88 1004.4
20260510102315 9 278 0.0 0.0 0.00 0.00 0.00 88 1004.4
20260510101814 9 278 0.0 1.6 0.00 0.00 0.00 88 1004.3
20260510101314 9 278 0.0 1.6 0.00 0.00 0.00 88 1004.3
20260510100808 9 278 0.0 0.0 0.00 0.00 0.00 88 1004.3
20260510100301 9 278 0.0 0.0 0.00 0.00 0.00 88 1004.3
20260510095756 9 278 0.0 0.0 0.00 0.00 0.00 88 1004.3
20260510095250 9 278 0.0 0.0 0.00 0.00 0.00 88 1004.2
20260510094744 9 278 0.0 0.0 0.00 0.00 0.00 88 1004.2
20260510094237 9 278 0.0 0.0 0.00 0.00 0.00 88 1004.2
20260510093732 9 278 0.0 0.0 0.00 0.00 0.00 88 1004.2
20260510093452 10 278 0.0 0.0 0.00 0.00 0.00 88 1004.2
20260510092721 10 278 0.0 0.0 0.00 0.00 0.00 88 1004.2
20260510092214 10 278 0.0 0.0 0.00 0.00 0.00 88 1004.1
20260510091940 10 278 0.0 0.0 0.00 0.00 0.00 88 1004.1
20260510091201 10 278 0.0 1.6 0.00 0.00 0.00 88 1004.0
20260510090656 10 278 0.0 1.6 0.00 0.00 0.00 88 1004.0
20260510090150 9 278 0.0 1.6 0.00 0.00 0.00 88 1004.0
20260510085645 9 278 0.0 1.6 0.00 0.00 0.00 88 1003.9
20260510085138 9 278 0.0 0.0 0.00 0.00 0.00 88 1003.9
20260510084633 9 278 0.0 0.0 0.00 0.00 0.00 88 1003.8
20260510084126 9 278 0.0 0.0 0.00 0.00 0.00 88 1003.7
20260510083620 10 278 0.0 0.0 0.00 0.00 0.00 88 1003.6
20260510083114 10 278 0.0 0.0 0.00 0.00 0.00 88 1003.5
20260510082608 10 278 0.0 0.0 0.00 0.00 0.00 88 1003.5
20260510082102 10 278 0.0 0.0 0.00 0.00 0.00 88 1003.4
20260510081818 10 278 0.0 0.0 0.00 0.00 0.00 88 1003.4
20260510081049 10 278 0.0 0.0 0.00 0.00 0.00 88 1003.2
20260510080544 10 278 0.0 0.0 0.00 0.00 0.00 88 1003.2
20260510080037 10 278 0.0 0.0 0.00 0.00 0.00 88 1003.1
20260510075530 10 278 0.0 0.0 0.00 0.00 0.00 88 1003.1
20260510075248 10 278 0.0 0.0 0.00 0.00 0.00 88 1003.1
20260510074738 10 278 0.0 0.0 0.00 0.00 0.00 88 1003.0
20260510074011 10 284 0.0 0.0 0.00 0.00 0.00 88 1002.9
20260510073506 10 285 0.0 0.0 0.00 0.00 0.00 88 1002.9
20260510073006 10 285 0.0 0.0 0.00 0.00 0.00 88 1002.9
20260510072006 10 284 0.0 0.0 0.00 0.00 0.00 88 1002.9
20260510071506 10 284 0.0 0.0 0.00 0.00 0.00 88 1002.8
20260510071006 10 284 0.0 0.0 0.00 0.00 0.00 88 1002.8
20260510070734 11 284 0.0 0.0 0.00 0.00 0.00 88 1002.7
20260510070006 11 284 0.0 0.0 0.00 0.00 0.00 87 1002.8
20260510065504 11 285 0.0 0.0 0.00 0.00 0.00 87 1002.8
20260510065002 11 285 0.0 0.0 0.00 0.00 0.00 87 1002.8
20260510064502 10 284 0.0 0.0 0.00 0.00 0.00 88 1002.9
20260510064003 10 284 0.0 0.0 0.00 0.00 0.00 88 1002.7
20260510063500 11 285 0.0 0.0 0.00 0.00 0.00 88 1002.7
20260510063000 11 284 0.0 0.0 0.00 0.00 0.00 88 1002.7
20260510062720 11 285 0.0 0.0 0.00 0.00 0.00 88 1002.7
20260510062000 11 284 0.0 0.0 0.00 0.00 0.00 88 1002.7
20260510060956 11 284 0.0 0.0 0.00 0.00 0.00 87 1002.6
20260510060454 11 284 0.0 0.0 0.00 0.00 0.00 88 1002.5
20260510055948 11 284 0.0 0.0 0.00 0.00 0.00 88 1002.5
20260510055714 11 285 0.0 0.0 0.00 0.00 0.00 88 1002.5
20260510054936 11 284 0.0 0.0 0.00 0.00 0.00 88 1002.6
20260510054429 11 285 0.0 0.0 0.00 0.00 0.00 88 1002.6
20260510053924 11 285 0.0 0.0 0.00 0.00 0.00 88 1002.6
20260510053418 11 285 0.0 0.0 0.00 0.00 0.00 88 1002.7
20260510052912 11 284 0.0 0.0 0.00 0.00 0.00 88 1002.7
20260510052406 11 285 0.0 0.0 0.00 0.00 0.00 88 1002.8
20260510051900 11 285 0.0 0.0 0.00 0.00 0.00 88 1002.8
20260510051354 11 285 0.0 0.0 0.00 0.00 0.00 88 1002.8
20260510051108 12 285 0.0 0.0 0.00 0.00 0.00 88 1002.8
20260510050342 12 284 0.0 0.0 0.00 0.00 0.00 88 1002.8
20260510050057 12 284 0.0 0.0 0.00 0.00 0.00 88 1002.9
20260510045330 12 285 0.0 0.0 0.00 0.00 0.00 88 1002.9
20260510044825 12 284 0.0 0.0 0.00 0.00 0.00 88 1002.9
20260510044318 12 284 0.0 0.0 0.00 0.00 0.00 88 1002.9
20260510043812 12 284 0.0 0.0 0.00 0.00 0.00 88 1002.9
20260510043531 12 285 0.0 0.0 0.00 0.00 0.00 88 1002.9
20260510042800 12 284 0.0 0.0 0.00 0.00 0.00 88 1002.9
20260510042255 12 284 0.0 0.0 0.00 0.00 0.00 88 1002.9
20260510041749 12 285 0.0 0.0 0.00 0.00 0.00 88 1002.9
20260510041241 12 285 0.0 0.0 0.00 0.00 0.00 88 1002.9
20260510040740 12 285 0.0 0.0 0.00 0.00 0.00 88 1002.9
20260510040241 13 284 0.0 0.0 0.00 0.00 0.00 88 1002.8
20260510035739 13 284 0.0 0.0 0.00 0.00 0.00 88 1002.7
20260510035239 13 285 0.0 0.0 0.00 0.00 0.00 88 1002.8
20260510034740 13 284 0.0 0.0 0.00 0.00 0.00 87 1002.7
20260510033741 13 285 0.0 0.0 0.00 0.00 0.00 87 1002.6
20260510033242 13 285 0.0 0.0 0.00 0.00 0.00 87 1002.6
20260510032742 13 284 0.0 0.0 0.00 0.00 0.00 86 1002.6
20260510032459 13 285 0.0 0.0 0.00 0.00 0.00 86 1002.6
20260510031737 14 285 0.0 0.0 0.00 0.00 0.00 86 1002.6
20260510031238 14 285 0.0 0.0 0.00 0.00 0.00 86 1002.5
20260510030738 14 285 0.0 0.0 0.00 0.00 0.00 86 1002.5
20260510030457 15 285 0.0 0.0 0.00 0.00 0.00 86 1002.5
20260510025735 15 285 0.0 0.0 0.00 0.00 0.00 85 1002.5
20260510025235 15 285 0.0 0.0 0.00 0.00 0.00 85 1002.5
20260510024735 15 284 0.0 0.0 0.00 0.00 0.00 85 1002.4
20260510024236 15 284 0.0 0.0 0.00 0.00 0.00 84 1002.4
20260510023736 15 284 0.0 0.0 0.00 0.00 0.00 84 1002.4
20260510023457 15 284 0.0 0.0 0.00 0.00 0.00 84 1002.5
20260510022732 15 284 0.0 0.0 0.00 0.00 0.00 84 1002.4
20260510022229 15 284 0.0 0.0 0.00 0.00 0.00 83 1002.4
20260510021728 15 284 0.0 0.0 0.00 0.00 0.00 83 1002.4
20260510021450 15 284 0.0 0.0 0.00 0.00 0.00 82 1002.3
20260510020725 15 284 0.0 0.0 0.00 0.00 0.00 82 1002.3
20260510020447 15 284 0.0 0.0 0.00 0.00 0.00 81 1002.3
20260510015719 16 284 0.0 0.0 0.00 0.00 0.00 80 1002.2
20260510015217 16 284 0.0 0.0 0.00 0.00 0.00 80 1002.2
20260510014716 16 284 0.0 0.0 0.00 0.00 0.00 80 1002.2
20260510014431 16 284 0.0 0.0 0.00 0.00 0.00 80 1002.1
20260510013938 16 284 0.0 0.0 0.00 0.00 0.00 80 1002.1
20260510013431 16 284 0.0 0.0 0.00 0.00 0.00 80 1001.9
20260510012707 16 284 0.0 0.0 0.00 0.00 0.00 80 1001.9
20260510012206 16 284 0.0 0.0 0.00 0.00 0.00 80 1001.8
20260510011704 16 284 0.0 0.0 0.00 0.00 0.00 81 1001.8
20260510011204 16 284 0.0 0.0 0.00 0.00 0.00 81 1001.7
20260510010659 16 284 0.0 0.0 0.00 0.00 0.00 81 1001.7
20260510010157 16 284 0.0 0.0 0.00 0.00 0.00 80 1001.7
20260510005155 16 284 0.0 0.0 0.00 0.00 0.00 80 1001.7
20260510004649 16 284 0.0 0.0 0.00 0.00 0.00 80 1001.7
20260510004414 16 284 0.0 0.0 0.00 0.00 0.00 80 1001.7
20260510003637 16 284 0.0 0.0 0.00 0.00 0.00 79 1001.6
20260510003131 16 284 0.0 0.0 0.00 0.00 0.00 79 1001.5
20260510002625 16 284 0.0 0.0 0.00 0.00 0.00 78 1001.5
20260510002347 16 284 0.0 0.0 0.00 0.00 0.00 78 1001.5
20260510001614 17 284 0.0 1.6 0.00 0.00 0.00 78 1001.4
20260510001107 17 284 0.0 1.6 0.00 0.00 0.00 78 1001.4
20260510000828 17 285 0.0 0.0 0.00 0.00 0.00 77 1001.4
20260510000055 17 285 0.0 0.0 0.00 0.00 0.00 77 1001.3
20260509235548 17 284 0.0 0.0 0.00 0.00 0.00 76 1001.3
20260509235044 17 285 0.0 0.0 0.00 0.00 0.00 75 1001.3
20260509234536 18 284 0.0 0.0 0.00 0.00 0.00 74 1001.2
20260509234031 18 285 0.0 0.0 0.00 0.00 0.00 74 1001.1
20260509233524 18 285 0.0 1.6 0.00 0.00 0.00 72 1001.3
20260509233018 18 285 0.0 1.6 0.00 0.00 0.00 71 1001.3
20260509232735 19 284 0.0 0.0 0.00 0.00 0.00 70 1001.1
20260509232007 20 284 0.0 0.0 0.00 0.00 0.00 68 1001.1
20260509231500 20 284 0.0 0.0 0.00 0.00 0.00 67 1001.1
20260509230955 20 284 0.0 0.0 0.00 0.00 0.00 66 1001.1
20260509230448 21 284 0.0 0.0 0.00 0.00 0.00 66 1001.0
20260509225945 20 284 0.0 1.6 0.00 0.00 0.00 67 1001.0
20260509225436 21 284 0.0 1.6 0.00 0.00 0.00 66 1001.1
20260509224931 21 283 0.0 1.6 0.00 0.00 0.00 66 1001.0
20260509224425 21 288 0.0 4.8 0.00 0.00 0.00 66 1001.0
20260509223919 21 46 0.0 4.8 0.00 0.00 0.00 64 1001.0
20260509223638 21 21 0.0 3.2 0.00 0.00 0.00 66 1001.1
20260509223126 21 68 0.0 3.2 0.00 0.00 0.00 66 1001.1
20260509222400 21 56 0.0 3.2 0.00 0.00 0.00 69 1001.1
20260509221855 21 56 1.6 8.0 0.00 0.00 0.00 67 1001.0
20260509221349 21 96 1.6 8.0 0.00 0.00 0.00 67 1001.0
20260509220844 21 56 3.2 8.0 0.00 0.00 0.00 66 1001.0
20260509220337 22 87 3.2 6.4 0.00 0.00 0.00 65 1001.1
20260509215831 22 73 1.6 4.8 0.00 0.00 0.00 65 1001.0
20260509215324 22 49 0.0 4.8 0.00 0.00 0.00 64 1001.0
20260509215039 22 49 1.6 4.8 0.00 0.00 0.00 66 1001.0
20260509214314 22 49 1.6 6.4 0.00 0.00 0.00 65 1000.9
20260509213301 22 75 1.6 3.2 0.00 0.00 0.00 62 1000.9
20260509212755 22 277 0.0 3.2 0.00 0.00 0.00 62 1000.9
20260509212250 22 91 1.6 4.8 0.00 0.00 0.00 62 1000.9
20260509211745 22 84 1.6 8.0 0.00 0.00 0.00 61 1000.8
20260509211504 22 240 3.2 11.3 0.00 0.00 0.00 60 1000.7
20260509210951 22 170 3.2 11.3 0.00 0.00 0.00 62 1000.6
20260509210225 22 68 3.2 8.0 0.00 0.00 0.00 66 1000.7
20260509205945 22 56 3.2 9.7 0.00 0.00 0.00 64 1000.7
20260509205444 21 48 3.2 11.3 0.00 0.00 0.00 67 1000.6
20260509204707 22 82 3.2 9.7 0.00 0.00 0.00 68 1000.6
20260509204201 21 65 3.2 8.0 0.00 0.00 0.00 66 1000.8
20260509203920 22 58 3.2 8.0 0.00 0.00 0.00 65 1000.7
20260509203149 22 147 1.6 9.7 0.00 0.00 0.00 63 1000.9
20260509202644 23 251 1.6 9.7 0.00 0.00 0.00 60 1001.0
20260509202137 23 248 3.2 11.3 0.00 0.00 0.00 55 1001.0
20260509201631 23 233 3.2 11.3 0.00 0.00 0.00 53 1001.0
20260509201125 23 173 1.6 8.0 0.00 0.00 0.00 56 1001.1
20260509200619 22 276 1.6 8.0 0.00 0.00 0.00 55 1001.1
20260509200338 22 233 0.0 11.3 0.00 0.00 0.00 62 1001.2
20260509195607 22 179 1.6 11.3 0.00 0.00 0.00 58 1001.3
20260509195100 22 186 1.6 3.2 0.00 0.00 0.00 58 1001.4
20260509194555 22 206 0.0 4.8 0.00 0.00 0.00 58 1001.4
20260509194049 22 240 0.0 4.8 0.00 0.00 0.00 61 1001.4
20260509193544 22 41 0.0 3.2 0.00 0.00 0.00 60 1001.4